Simultaneous Nadir Overpasses (SNOs) Predictions

Prediction of SNOs between LANDSAT-8 and METOP-B Satellite Orbit:

Table of predicted SNOs for the next 14.0 days since TLE Epoch: 12/12/2014
Index Date (LANDSAT-8) Time (LANDSAT-8) Lat,Lon (LANDSAT-8) SZA (LANDSAT-8 ) Date (METOP-B) Time (METOP-B) Lat,Lon (METOP-B) SZA (METOP-B ) Distance(km) Time Diff (sec)
1 12/15/2014 09:28:56 -81.04,-103.66 73.77 12/15/2014 09:27:51 -81.04,-103.62 73.79 0.64 65
2 12/15/2014 10:18:21 81.07, 64.38 106.30 12/15/2014 10:18:29 81.07, 64.55 106.32 2.86 8
3 12/18/2014 05:03:10 -81.04, -37.23 73.69 12/18/2014 05:02:14 -81.04, -37.28 73.72 0.95 56
4 12/18/2014 05:52:35 81.07, 130.80 106.38 12/18/2014 05:52:52 81.07, 130.86 106.39 1.09 17
5 12/21/2014 00:37:24 -81.05, 29.38 73.64 12/21/2014 00:36:36 -81.05, 29.37 73.67 0.60 48
6
